{"data":{"norad_id":53145,"intl_designator":"2022-083P","name":"STARLINK-4106","alt_names":[],"object_type":"PAYLOAD","status":"ACTIVE","operator":null,"country":"US","launch_date":"2022-07-17","launch_site_code":"AFETR","launch_vehicle":null,"mission":null,"orbit_class":"UNKNOWN","rcs_meters":null,"size_class":null,"mass_kg":null,"dimensions":null,"purposes":["comms"],"wikipedia_slug":null,"has_3d_model":false,"image_url":null,"decayed_at":null,"tle_current":{"epoch":"2026-05-24T13:05:14.344224Z","epoch_age_seconds":117444,"freshness":"FRESH","line1":"1 53145U 22083P   26144.54530491  .00000145  00000+0  27206-4 0  9991","line2":"2 53145  53.2138 193.5914 0000910  73.6441 286.4652 15.08837010212673","mean_motion":15.0883701,"eccentricity":9.1e-5,"inclination_deg":53.2138,"raan_deg":193.5914,"arg_perigee_deg":73.6441,"mean_anomaly_deg":286.4652,"bstar":2.7206e-5,"rev_number":21267,"period_min":95.437743802427,"perigee_km":539.12300026596,"apogee_km":540.3820561601,"semimajor_km":6917.889528213,"source":"CELESTRAK","updated_at":"2026-05-25T13:38:17.318589Z"}}}